This is the latest recevied weather packets stored in our database for station/object KF4PPJ. If no packets are shown the sender has not sent any weather packets the latest 10 day(s).
| Time | Temp. | Humidity | Pressure | Rain* | Wind** | Luminosity | Snow |
|---|---|---|---|---|---|---|---|
| 1777933430 | 25° C | 48% | 1013 hPa | 0 mm | - | 509 W/m² | - |
| 1777933129 | 25° C | 47% | 1013.1 hPa | 0 mm | - | 508 W/m² | - |
| 1777932825 | 25° C | 47% | 1013.1 hPa | 0 mm | - | 582 W/m² | - |
| 1777932522 | 24.44° C | 47% | 1013.3 hPa | 0 mm | - | 635 W/m² | - |
| 1777932219 | 23.89° C | 48% | 1013.2 hPa | 0 mm | - | 609 W/m² | - |
| 1777931916 | 24.44° C | 46% | 1013.3 hPa | 0 mm | - | 600 W/m² | - |
| 1777931612 | 23.89° C | 47% | 1013.3 hPa | 0 mm | - | 645 W/m² | - |
| 1777931308 | 23.89° C | 47% | 1013.4 hPa | 0 mm | - | 673 W/m² | - |
| 1777931006 | 23.89° C | 47% | 1013.3 hPa | 0 mm | - | 396 W/m² | - |
| 1777930702 | 23.33° C | 51% | 1013.4 hPa | 0 mm | - | 657 W/m² | - |
| 1777930398 | 23.33° C | 50% | 1013.3 hPa | 0 mm | - | 672 W/m² | - |
| 1777930096 | 23.89° C | 50% | 1013.6 hPa | 0 mm | - | 678 W/m² | - |
| 1777929792 | 23.89° C | 50% | 1013.3 hPa | 0 mm | - | 672 W/m² | - |
| 1777929490 | 23.33° C | 51% | 1013.5 hPa | 0 mm | - | 652 W/m² | - |
| 1777929185 | 23.33° C | 52% | 1013.6 hPa | 0 mm | - | 667 W/m² | - |
| 1777928883 | 22.78° C | 51% | 1013.8 hPa | 0 mm | - | 566 W/m² | - |
| 1777928580 | 22.78° C | 53% | 1013.7 hPa | 0 mm | - | 563 W/m² | - |
| 1777928277 | 22.22° C | 55% | 1013.5 hPa | 0 mm | - | 586 W/m² | - |
| 1777927975 | 22.22° C | 54% | 1013.6 hPa | 0 mm | - | 616 W/m² | - |
| 1777927673 | 22.22° C | 54% | 1013.7 hPa | 0 mm | - | 663 W/m² | - |
| 1777927371 | 22.22° C | 53% | 1013.7 hPa | 0 mm | - | 606 W/m² | - |
| 1777927070 | 22.22° C | 56% | 1013.8 hPa | 0 mm | - | 661 W/m² | - |
| 1777926767 | 21.67° C | 55% | 1013.6 hPa | 0 mm | - | 628 W/m² | - |
| 1777926467 | 21.67° C | 55% | 1013.8 hPa | 0 mm | - | 551 W/m² | - |
| 1777926164 | 21.67° C | 55% | 1013.7 hPa | 0 mm | - | 518 W/m² | - |
* Rain latest hour (hover to see other rain measurements)
** Current wind speed in m/s (hover to see current wind gust speed)